DW2893 Weather Reports


Display with metric or nautical units.
time (UTC)temp
F
wind
direction
speed
MPH
gust
MPH
rain 1hr
in
rain 24hr
in
rain mn
in
humidity
%
barometer
mb
20240226044805 67 132 5.0 6.0 0.00 0.00 0.00 74 1010.6
20240226043805 68 136 4.0 6.0 0.00 0.00 0.00 73 1010.7
20240226043304 68 137 4.0 7.0 0.00 0.00 0.00 72 1010.7
20240226042805 68 145 5.0 7.0 0.00 0.00 0.00 72 1010.6
20240226042306 68 128 5.0 8.0 0.00 0.00 0.00 71 1010.6
20240226041805 68 133 6.0 8.0 0.00 0.00 0.00 71 1010.7
20240226041305 69 132 6.0 8.0 0.00 0.00 0.00 71 1010.6
20240226040804 69 128 6.0 9.0 0.00 0.00 0.00 70 1010.4
20240226035804 69 150 6.0 8.0 0.00 0.00 0.00 69 1010.3
20240226033805 69 154 6.0 9.0 0.00 0.00 0.00 66 1010.2
20240226033304 69 139 6.0 9.0 0.00 0.00 0.00 65 1010.2
20240226032804 69 144 6.0 9.0 0.00 0.00 0.00 64 1010.2
20240226032305 70 145 6.0 9.0 0.00 0.00 0.00 63 1010.2
20240226031305 70 144 6.0 8.0 0.00 0.00 0.00 61 1010.2
20240226030305 70 129 3.0 7.0 0.00 0.00 0.00 59 1010.1
20240226025804 71 141 5.0 7.0 0.00 0.00 0.00 58 1010.1
20240226024305 71 151 4.0 8.0 0.00 0.00 0.00 56 1010.0
20240226023804 72 144 5.0 7.0 0.00 0.00 0.00 55 1010.0
20240226021804 73 143 5.0 9.0 0.00 0.00 0.00 52 1009.9
20240226020804 73 139 6.0 9.0 0.00 0.00 0.00 50 1009.8
20240226014805 74 136 3.0 5.0 0.00 0.00 0.00 46 1009.6
20240226014304 74 135 3.0 5.0 0.00 0.00 0.00 45 1009.5
20240226013304 74 149 5.0 6.0 0.00 0.00 0.00 43 1009.4
20240226012804 75 149 3.0 6.0 0.00 0.00 0.00 43 1009.3
20240226011804 76 149 1.0 3.0 0.00 0.00 0.00 41 1009.3
20240226011308 76 149 1.0 2.0 0.00 0.00 0.00 41 1009.2
20240226010808 77 149 1.0 3.0 0.00 0.00 0.00 40 1009.0
20240226004808 78 152 5.0 8.0 0.00 0.00 0.00 38 1008.8
20240226003309 79 146 7.0 10.0 0.00 0.00 0.00 37 1008.7
20240226002808 79 146 6.0 12.0 0.00 0.00 0.00 37 1008.4
20240226001308 80 151 7.0 12.0 0.00 0.00 0.00 36 1008.4
20240225235809 81 143 8.0 12.0 0.00 0.00 0.00 35 1008.5
20240225234808 82 161 7.0 12.0 0.00 0.00 0.00 35 1008.5
20240225233808 82 166 9.0 14.0 0.00 0.00 0.00 34 1008.5
20240225232808 82 146 8.0 20.0 0.00 0.00 0.00 35 1008.4
20240225231808 82 156 7.0 14.0 0.00 0.00 0.00 34 1008.3
20240225230307 83 151 7.0 14.0 0.00 0.00 0.00 34 1008.2
20240225225308 83 122 9.0 13.0 0.00 0.00 0.00 35 1008.2
20240225224808 83 143 12.0 17.0 0.00 0.00 0.00 35 1008.1
20240225223808 83 167 9.0 17.0 0.00 0.00 0.00 36 1008.2
20240225223308 83 158 12.0 17.0 0.00 0.00 0.00 36 1008.2
20240225221308 83 172 10.0 15.0 0.00 0.00 0.00 36 1008.2
20240225215808 83 141 10.0 18.0 0.00 0.00 0.00 37 1008.3
20240225215308 82 166 13.0 24.0 0.00 0.00 0.00 38 1008.3
20240225214808 83 159 13.0 21.0 0.00 0.00 0.00 38 1008.4
20240225212308 81 157 17.0 23.0 0.00 0.00 0.00 39 1008.5
20240225211807 82 157 14.0 23.0 0.00 0.00 0.00 39 1008.5
20240225210308 82 162 10.0 20.0 0.00 0.00 0.00 37 1008.5
20240225205808 82 190 11.0 21.0 0.00 0.00 0.00 37 1008.6
20240225205308 81 168 7.0 15.0 0.00 0.00 0.00 38 1008.6
20240225204308 82 164 12.0 21.0 0.00 0.00 0.00 38 1008.6
20240225203308 81 155 12.0 20.0 0.00 0.00 0.00 37 1008.8
20240225200807 80 164 14.0 23.0 0.00 0.00 0.00 38 1009.0
20240225200307 80 158 13.0 20.0 0.00 0.00 0.00 37 1009.1
20240225195307 79 164 13.0 21.0 0.00 0.00 0.00 39 1009.3
20240225194307 78 172 13.0 23.0 0.00 0.00 0.00 39 1009.4
20240225193807 78 164 11.0 20.0 0.00 0.00 0.00 40 1009.4
20240225193307 77 170 12.0 23.0 0.00 0.00 0.00 40 1009.5
20240225185807 76 141 15.0 25.0 0.00 0.00 0.00 40 1010.2
20240225185307 76 151 11.0 20.0 0.00 0.00 0.00 41 1010.2
20240225184807 76 144 16.0 22.0 0.00 0.00 0.00 41 1010.2
20240225184307 76 147 15.0 22.0 0.00 0.00 0.00 40 1010.2
20240225181807 75 156 14.0 22.0 0.00 0.00 0.00 42 1010.8
20240225180307 74 157 13.0 25.0 0.00 0.00 0.00 42 1011.1
20240225175807 73 173 9.0 18.0 0.00 0.00 0.00 43 1011.1
20240225172807 71 153 15.0 22.0 0.00 0.00 0.00 44 1011.8
20240225172307 71 172 13.0 21.0 0.00 0.00 0.00 44 1011.8
20240225165307 69 158 11.0 21.0 0.00 0.00 0.00 45 1012.0
20240225164807 69 161 14.0 26.0 0.00 0.00 0.00 45 1011.8
20240225164307 68 177 11.0 22.0 0.00 0.00 0.00 46 1011.8
20240225163807 68 159 14.0 21.0 0.00 0.00 0.00 46 1012.1
20240225162307 67 173 14.0 23.0 0.00 0.00 0.00 47 1012.1
20240225161307 67 171 14.0 24.0 0.00 0.00 0.00 46 1012.2
20240225154806 67 177 13.0 22.0 0.00 0.00 0.00 46 1012.3
20240225153307 66 160 14.0 24.0 0.00 0.00 0.00 46 1012.4
20240225152306 66 174 14.0 21.0 0.00 0.00 0.00 46 1012.5
20240225151807 66 147 13.0 21.0 0.00 0.00 0.00 46 1012.5
20240225150307 65 158 11.0 20.0 0.00 0.00 0.00 46 1012.9
20240225145806 64 147 10.0 20.0 0.00 0.00 0.00 47 1012.9
20240225144807 63 156 11.0 16.0 0.00 0.00 0.00 47 1012.7
20240225144307 63 167 10.0 16.0 0.00 0.00 0.00 47 1012.7
20240225142806 62 144 10.0 20.0 0.00 0.00 0.00 47 1012.5
20240225140306 61 148 12.0 20.0 0.00 0.00 0.00 47 1012.4
20240225133806 62 151 10.0 21.0 0.00 0.00 0.00 46 1012.4
20240225132807 62 164 12.0 20.0 0.00 0.00 0.00 45 1012.4
20240225132306 62 156 12.0 17.0 0.00 0.00 0.00 45 1012.4
20240225131806 62 157 10.0 23.0 0.00 0.00 0.00 44 1012.5
20240225130306 62 156 14.0 24.0 0.00 0.00 0.00 44 1012.5
20240225123806 63 167 14.0 26.0 0.00 0.00 0.00 42 1012.5
20240225122807 63 168 16.0 26.0 0.00 0.00 0.00 42 1012.4
20240225122306 63 175 16.0 23.0 0.00 0.00 0.00 41 1012.5
20240225120806 64 147 10.0 28.0 0.00 0.00 0.00 39 1012.4
20240225120307 64 169 13.0 26.0 0.00 0.00 0.00 39 1012.4
20240225114806 63 153 15.0 22.0 0.00 0.00 0.00 38 1012.4
20240225112307 63 160 10.0 20.0 0.00 0.00 0.00 36 1012.4
20240225111806 63 177 13.0 22.0 0.00 0.00 0.00 36 1012.4
20240225110806 62 171 13.0 22.0 0.00 0.00 0.00 37 1012.4
20240225110306 62 168 14.0 28.0 0.00 0.00 0.00 38 1012.5
20240225105806 62 178 14.0 24.0 0.00 0.00 0.00 39 1012.5
20240225105306 62 169 13.0 21.0 0.00 0.00 0.00 40 1012.6
20240225104806 62 165 14.0 21.0 0.00 0.00 0.00 40 1012.6
20240225103806 62 150 12.0 20.0 0.00 0.00 0.00 41 1012.7
20240225103306 62 168 13.0 21.0 0.00 0.00 0.00 42 1012.7
20240225102306 62 174 14.0 22.0 0.00 0.00 0.00 43 1012.8
20240225100305 62 158 13.0 22.0 0.00 0.00 0.00 45 1012.9
20240225095806 62 173 12.0 23.0 0.00 0.00 0.00 46 1012.9
20240225095307 62 181 12.0 18.0 0.00 0.00 0.00 46 1012.9
20240225094805 62 168 10.0 18.0 0.00 0.00 0.00 47 1012.9
20240225094306 62 155 14.0 25.0 0.00 0.00 0.00 47 1013.0
20240225093806 62 163 13.0 25.0 0.00 0.00 0.00 47 1013.0
20240225093305 62 173 12.0 20.0 0.00 0.00 0.00 47 1013.0
20240225092805 62 156 11.0 21.0 0.00 0.00 0.00 47 1013.2
20240225091806 62 168 14.0 26.0 0.00 0.00 0.00 47 1013.3
20240225090806 63 153 14.0 22.0 0.00 0.00 0.00 47 1013.3
20240225090305 63 168 13.0 22.0 0.00 0.00 0.00 47 1013.3
20240225085805 63 168 13.0 22.0 0.00 0.00 0.00 47 1013.5
20240225085306 63 168 9.0 18.0 0.00 0.00 0.00 46 1013.6
20240225084805 63 174 12.0 21.0 0.00 0.00 0.00 46 1013.6
20240225084305 63 164 13.0 21.0 0.00 0.00 0.00 46 1013.6
20240225082306 64 167 14.0 21.0 0.00 0.00 0.00 44 1013.9
20240225081805 64 150 15.0 26.0 0.00 0.00 0.00 44 1013.8
20240225081305 63 170 10.0 21.0 0.00 0.00 0.00 44 1013.9
20240225075805 63 171 10.0 17.0 0.00 0.00 0.00 44 1013.8
20240225075307 63 164 8.0 14.0 0.00 0.00 0.00 43 1014.1
20240225074306 63 158 8.0 14.0 0.00 0.00 0.00 43 1014.2
20240225071805 63 153 10.0 18.0 0.00 0.00 0.00 42 1014.2
20240225070805 63 143 7.0 12.0 0.00 0.00 0.00 43 1014.2
20240225070306 63 156 7.0 12.0 0.00 0.00 0.00 43 1014.3
20240225065805 63 138 8.0 12.0 0.00 0.00 0.00 43 1014.2
20240225065307 63 147 7.0 13.0 0.00 0.00 0.00 43 1014.2
20240225064305 63 146 7.0 12.0 0.00 0.00 0.00 42 1014.3
20240225063305 63 142 8.0 14.0 0.00 0.00 0.00 42 1014.3
20240225062306 63 130 7.0 12.0 0.00 0.00 0.00 42 1014.4
20240225061805 63 140 7.0 10.0 0.00 0.00 0.00 41 1014.5
20240225061305 63 141 7.0 12.0 0.00 0.00 0.00 41 1014.4
20240225060949 63 145 7.0 12.0 0.00 0.00 0.00 41 1014.5
20240225055805 63 152 7.0 10.0 0.00 0.00 0.00 41 1014.7
20240225055306 63 151 7.0 12.0 0.00 0.00 0.00 41 1014.7
20240225053305 63 150 7.0 13.0 0.00 0.00 0.00 41 1014.8
20240225051305 63 153 7.0 12.0 0.00 0.00 0.00 40 1014.9
20240225050805 63 145 7.0 10.0 0.00 0.00 0.00 40 1014.9
20240225050305 64 147 6.0 12.0 0.00 0.00 0.00 40 1014.9
20240225045805 64 145 6.0 10.0 0.00 0.00 0.00 40 1014.9
20240225045307 64 144 7.0 10.0 0.00 0.00 0.00 39 1014.9